www.pogodaiklimat.ru

Погода и климат >> Архив погоды >> Мексика >> Керетаро


ПОГОДА в Керетаро

  • Прогноз погоды в Керетаро
  • Монитор погоды в Керетаро

АРХИВ ПОГОДЫ в Керетаро

Время (UTC), дата Ветер
(напр.,м/с)
 
Видим.   Явления Облачность Т
(С)
Тd
(С)
f
(%)
Тe
(С)
Тes
(С)
Комфортность P
(гПа)
Po
(гПа)
Тmin
(С)
Tmax
(С)
R
(мм)
R24
(мм)
S
(см)
12 15.05 В 1 10 км 4/0 2000 м
[Ac trans]
+18.3 +15.9 86 +20 +20 1005.7 813.4 +17.8 +32.8
15 15.05 В 2 15 км мгла ясно +21.7 +16.6 73 +26 +34 душно 1008.9 814.7
18 15.05 СВ 2 17 км мгла {туман} 1/0
[Ac trans]
+29.2 +14.3 40 +31 +52 опасность
солнечного
удара
1007.2 813.8 +17.8 +29.4
21 15.05 ЮЗ 2 17 км 6/4 870 м
[Cu Sc Ac inh]
+32.2 +12.1 29 +32 +40 жарко 1001.9 811.1
00 16.05 СЗ 3 17 км 8/4 870 м
[Cu Sc Ac As]
+30.2 +9.6 28 +30 +30 жарко 999.0 810.5 +17.8 +32.4
03 16.05 В 4 17 км 5/1 870 м
[Cu med, cong Ac As]
+24.8 +14.1 51 +27 +27 жарко 999.7 812.0
06 16.05 В 3 5000 м 4/0 2000 м
[Ac As]
+20.2 +15.9 76 +23 +23 комфорт 1002.7 813.8 +17.8 +32.4
09 16.05 В 2 5000 м 4/0 2000 м
[Ac As]
+18.6 +15.4 82 +20 +20 1004.2 1013.4
15 16.05 В 2 15 км мгла {туман} 8/0
[Ac inh]
+20.2 +16.2 78 +24 +27 комфорт 1010.6 815.4
18 16.05 СЗ 2 16 км мгла {туман} 1/1 840 м
[Cu med, cong]
+28.4 +12.4 37 +30 +49 жарко 1008.1 814.0 +17.0 +28.6
00 17.05 СЗ 4 17 км 3/3 840 м
[Cu med, cong]
+31.6 +10.0 26 +31 +32 жарко 999.3 810.5 +17.0 +32.6
03 17.05 СВ 5 17 км 5/3 840 м
[Cu med, cong Ac As]
+25.2 +13.5 48 +27 +27 жарко 994.4 811.8
12 17.05 штиль 0 10 км 6/0 2000 м
[Ac trans]
+17.3 +12.0 71 +17 +17 1006.6 814.0 +16.8 +32.6
15 17.05 СЗ 1 15 км мгла ясно +22.3 +11.9 52 +25 +35 комфорт 1008.2 814.2
18 17.05 СЗ 2 17 км ясно +28.6 +11.7 35 +29 +51 опасность
солнечного
удара
1005.7 812.6 +16.8 +28.8
21 17.05 З 3 18 км мгла {туман} 1/1 750 м
[Cu med, cong]
+31.4 +11.3 29 +32 +43 жарко 1000.8 810.1
00 18.05 СЗ 4 17 км 1/1 870 м
[Cu med, cong]
+31.2 +8.9 25 +30 +31 жарко 997.6 809.4 +16.8 +32.4
03 18.05 ЮЗ 4 17 км 1/1 840 м
[Cu hum]
+25.6 +11.2 40 +27 +27 жарко 998.1 810.9
12 18.05 З 1 10 км 3/0 2000 м
[Ac trans]
+18.8 +10.9 60 +21 +21 комфорт 1008.8 812.8 +18.5 +32.4
15 18.05 З 2 20 км мгла ясно +22.1 +12.2 53 +24 +33 комфорт 1007.5 813.9
18 18.05 З 3 18 км ясно +28.2 +10.4 33 +29 +47 жарко 1005.3 812.5 +17.4 +28.4
21 18.05 СЗ 3 18 км ясно +31.2 +8.5 24 +30 +43 жарко 1000.5 809.9
00 19.05 З 2 20 км ясно +31.1 +9.0 25 +30 +32 жарко 997.7 809.3 +17.4 +31.5
03 19.05 З 1 5000 м ясно +26.2 +9.0 34 +27 +27 жарко 998.1 810.7
06 19.05 Ю 1 5000 м ясно +23.2 +8.1 38 +24 +24 комфорт 1000.3 812.2 +17.4 +31.5
09 19.05 З 1 5000 м ясно +21.2 +6.8 39 +22 +22 комфорт 1001.1 811.7
12 19.05 штиль 0 10 км ясно +18.6 +4.5 39 +19 +19 1004.7 812.9 +18.5 +31.5
15 19.05 СЗ 1 20 км мгла ясно +21.3 +9.6 47 +23 +33 комфорт 1007.2 813.8
00 20.05 СЗ 3 20 км ясно +33.0 +9.1 23 +32 +33 жарко 996.9 809.1 +17.9 +33.2
03 20.05 СВ 4 20 км ясно +27.4 +8.8 31 +27 +27 жарко 996.8 810.4
06 20.05 ЮВ 1 5000 м ясно +23.2 +14.4 58 +27 +27 душно 998.2 811.2 +17.9 +32.2
09 20.05 Ю 1 5000 м ясно +21.7 +15.6 68 +25 +25 комфорт 1000.2 811.5
12 20.05 ЮЗ 1 10 км ясно +19.1 +10.6 58 +21 +21 комфорт 1004.3 813.0 +18.7 +33.2
15 20.05 СЗ 1 15 км мгла ясно +23.5 +10.5 44 +25 +35 комфорт 1007.2 814.2
18 20.05 З 2 18 км ясно +29.0 +9.9 30 +29 +51 опасность
солнечного
удара
1004.9 812.7 +29.2
21 20.05 СЗ 2 18 км ясно +33.2 +10.3 25 +33 +49 жарко 999.6 809.9
00 21.05 СЗ 3 18 км ясно +33.2 +10.7 25 +33 +34 жарко 996.1 809.0 +18.7 +33.4
03 21.05 ЮВ 4 18 км 4/4 840 м
[Cu med, cong]
+27.6 +14.8 46 +30 +30 жарко 996.1 810.1
06 21.05 З 1 5000 м ясно +23.1 +11.7 49 +26 +26 жарко 999.7 811.0 +18.7 +34.2
09 21.05 З 1 5000 м ясно +21.7 +9.5 46 +23 +23 комфорт 999.8 811.4
12 21.05 ЮЗ 1 10 км ясно +18.7 +8.2 50 +20 +20 1002.6 811.7 +18.4 +34.2
15 21.05 З 1 15 км ясно +22.1 +9.1 43 +23 +34 комфорт 1004.9 812.1
18 21.05 З 2 17 км 3/0
[Ac As]
+29.1 +7.7 26 +28 +45 жарко 1003.0 810.9 +18.4 +29.4
21 21.05 З 2 17 км мгла {туман} 5/0
[Ac inh]
+32.5 +10.3 26 +32 +42 жарко 998.3 808.4
00 22.05 СЗ 3 17 км 5/0
[Ac As]
+32.6 +9.4 24 +32 +33 жарко 996.2 808.5 +18.4 +32.6
03 22.05 ЮЗ 2 20 км ясно +27.2 +9.8 34 +28 +28 жарко 995.2 809.0
06 22.05 З 1 5000 м 5/0
[Ac As]
+24.8 +11.8 44 +26 +26 жарко 998.5 811.4 +14.8 +32.6
09 22.05 З 1 5000 м ясно +20.4 +12.5 60 +24 +24 комфорт 999.4 810.7

 

Местоположение метеостанции Керетаро (Мексика): широта 20.58 долгота -100.40 высота над уровнем моря 1880 м.

В архиве по умолчанию представлена погода в Керетаро за последнюю неделю. Архивные данные за месяц целиком и за предыдущие месяцы, начиная с января 2011 года, Вы можете получить, выбрав интересующий диапазон дат из раскрывающегося списка и нажав кнопку "Ввод!".


*Определитесь, кто Вы:
робот инопланетянин человек

Внимание! Время в таблицах - всемирное. Для получения местного времени необходимо прибавить поправку, которая равна -6 ч.

Смотрите также архив погоды в соседних городах и на ближайших метеорологических станциях:

Погода в Гуанахуато (Мексика) (95 км)
Погода в Морелии (Мексика) (122 км)
Погода в Рио-Верде (Мексика) (156 км)
Погода в Толуке (Мексика) (163 км)
Погода в Пачуке (Мексика) (179 км)
Погода в Лагос де Морено (Мексика) (180 км)
Погода в Мехико (Мексика) (183 км)
Погода в Маталапе (Мексика) (185 км)
Погода в Сан-Луис-Потоси (Мексика) (185 км)
Погода в Институте Географии (Мексика) (189 км)

Пояснения к столбцам:

Ветер - указаны скорость ветра в м/с - средняя за 10 мин, порывы в срок и между сроками (в фигурных скобках) и направление, откуда дует ветер: С - северный, СВ - северо-восточный, В - восточный, ЮВ - юго-восточный, Ю - южный, ЮЗ - юго-западный, З - западный, СЗ - северо-западный.
Видимость - горизонтальная дальность видимости в метрах или километрах. При видимости от 1 до 10 км при отсутствии осадков обычно наблюдается дымка, при ухудшении видимости до 1 км и менее - туман. В сухую погоду видимость может ухудшаться дымом, пылью или мглою.
Явления - указаны атмосферные явления, наблюдавшиеся в срок или в последний час перед сроком; фигурными скобками обозначены явления, наблюдавшиеся между сроками (за 1-3 часа до срока); квадратными скобками обозначены град или гололедные отложения с указанием их диаметра в мм.
Облачность - указаны через наклонную черту общая и нижняя облачность в баллах и высота нижней границы облаков в метрах; квадратными скобками обозначены формы облаков: Ci - перистые, Cs - перисто-слоистые, Cc - перисто-кучевые, Ac - высококучевые, As - высокослоистые, Sc - слоисто-кучевые, Ns - слоисто-дождевые, Cu - кучевые, Cb - кучево-дождевые. Подробнее классификацию облаков см. в Атласе облаков (PDF).
T - Температура воздуха - температура, измеренная на высоте 2 м над землей.
Td - Температура точки росы - температура, при понижении до которой содержащийся в воздухе водяной пар достигнет насыщения.
f - Относительная влажность воздуха - влажноcть воздуха, измеренная на высоте 2 м над землей.
Te - Эффективная температура - температура, которую ощущает одетый по сезону человек в тени. Характеристика душности погоды. При расчете учитывается влияние влажности воздуха и скорости ветра на теплоощущения человека.
Tes - Эффективная температура на солнце - температура, которую ощущает человек, с поправкой на солнечный нагрев. Характеристика знойности погоды. Зависит от высоты солнца над горизонтом, облачности и скорости ветра. Ночью, в пасмурную погоду, а также при ветре 12 м/с и более поправка равна нулю.
P - Атмосферное давление - приведенное к уровню моря атмосферное давление.
Po - Атмосферное давление - измеренное на уровне метеостанции атмосферное давление.
Tmin - Минимальная температура - минимум температуры воздуха на высоте 2 м над землей.
Tmax - Максимальная температура - максимум температуры воздуха на высоте 2 м над землей.
R - Количество осадков - Количество выпавших осадков за период времени, мм. При наведении курсора мыши на число - период времени, за который выпало указанное количество осадков.
R24 - Количество осадков - Количество выпавших осадков за 24 часа, мм.
S - Снежный покров - Высота снежного покрова, см. При наведении курсора мыши на число - состояние снежного покрова и степень покрытия местности в баллах.